Weather History for Lytton Rcs, BC

Change the Weather History Date:

Sunday, March 9, 2014

  Actual Average Record
Temperature  
Mean Temperature 50 °F -  
Max Temperature 59 °F - - ()
Min Temperature 38 °F - - ()
Degree Days  
Heating Degree Days 16    
Moisture  
Dew Point 37 °F    
Average Humidity 70    
Maximum Humidity 89    
Minimum Humidity 29    
Precipitation  
Precipitation 0.01 in - - ()
Sea Level Pressure  
Sea Level Pressure 29.85 in    
Wind  
Wind Speed 16 mph ()    
Max Wind Speed 25 mph    
Max Gust Speed 38 mph    
T = Trace of Precipitation, MM = Missing Value Source: Averaged Metar Reports

Daily Weather History Graph

Daily Weather History Graph

Search for Another Location

Airport:

Trip Planner

Search our weather history database for the weather conditions in past years. The results will help you decide how hot, cold, wet, or windy it might be!

Date:

Astronomy

Mar. 09, 2014 Rise Set
Actual Time 7:32 AM PDT 7:01 PM PDT
Civil Twilight 7:00 AM PDT 7:34 PM PDT
Nautical Twilight 6:22 AM PDT 8:11 PM PDT
Astronomical Twilight 5:44 AM PDT 8:50 PM PDT
Moon 12:33 PM PDT (3/9) 3:28 AM PDT (3/9)
Length of Visible Light 12h 33m
Length of Day
11h 29m
First Quarter, 62% of the Moon is Illuminated
Mar 9
First Quarter
Mar 16
Full
Mar 23
Last Quarter
Mar 30
New
Apr 7
First Quarter

Hourly Weather History & Observations

Time (PDT) Temp. Windchill Dew Point Humidity Pressure Visibility Wind Dir Wind Speed Gust Speed Precip Events Conditions
12:00 AM 41.7 °F 33.1 °F 38.7 °F 89% 29.68 in - SSW 18.4 mph 32.2 mph N/A   Unknown
1:00 AM 41.9 °F 31.9 °F 38.7 °F 88% 29.69 in - SSW 25.3 mph 34.5 mph N/A   Unknown
3:00 AM 42.4 °F 34.1 °F 39.0 °F 88% 29.72 in - SSW 18.4 mph 31.1 mph N/A   Unknown
4:00 AM 42.6 °F 34.3 °F 39.0 °F 87% 29.75 in - South 18.4 mph 26.5 mph N/A   Unknown
5:00 AM 42 °F - 39 °F 83% 29.77 in - South 18.4 mph - -  
6:00 AM 42.3 °F 35.5 °F 38.3 °F 86% 29.79 in - South 12.7 mph 25.3 mph N/A   Unknown
7:00 AM 43.5 °F 34.3 °F 38.3 °F 82% 29.79 in - South 24.2 mph 33.4 mph N/A   Unknown
8:00 AM 43.2 °F 34.7 °F 38.3 °F 83% 29.81 in - SSE 19.6 mph 32.2 mph N/A   Unknown
9:00 AM 43.2 °F 34.5 °F 38.5 °F 84% 29.83 in - South 20.7 mph 33.4 mph N/A   Unknown
10:00 AM 44.1 °F 35.4 °F 39.4 °F 84% 29.87 in - South 21.9 mph 28.8 mph N/A   Unknown
11:00 AM 47 °F - 41 °F 71% 29.88 in - South 18.4 mph - -  
11:00 AM 46.8 °F - 40.6 °F 79% 29.88 in - South 16.1 mph 28.8 mph N/A   Unknown
12:00 PM 50.0 °F - 41.2 °F 72% 29.89 in - South 24.2 mph 34.5 mph N/A   Unknown
1:00 PM 53.1 °F - 40.5 °F 62% 29.89 in - South 20.7 mph 35.7 mph N/A   Unknown
2:00 PM 55.4 °F - 39.6 °F 55% 29.89 in - SSW 16.1 mph 26.5 mph N/A   Unknown
3:00 PM 56.7 °F - 35.4 °F 45% 29.86 in - South 18.4 mph 38.0 mph N/A   Unknown
4:00 PM 59.4 °F - 31.5 °F 35% 29.88 in - South 17.3 mph 27.6 mph N/A   Unknown
5:00 PM 55 °F - 32 °F 29% 29.88 in - South 18.4 mph - -  
5:00 PM 55.2 °F - 32.0 °F 41% 29.88 in - South 15.0 mph 31.1 mph N/A   Unknown
6:00 PM 52.0 °F - 33.1 °F 49% 29.88 in - South 17.3 mph 29.9 mph N/A   Unknown
7:00 PM 49.6 °F - 33.3 °F 53% 29.90 in - SSW 11.5 mph 19.6 mph N/A   Unknown
8:00 PM 47.7 °F - 34.2 °F 60% - - South 12.7 mph - N/A   Unknown
9:00 PM 45.7 °F 40.2 °F 34.2 °F 64% 29.93 in - SSE 11.5 mph - N/A   Unknown
10:00 PM 42.1 °F 36.1 °F 34.9 °F 76% 29.95 in - South 10.4 mph 18.4 mph N/A   Unknown
11:00 PM 40 °F - 35 °F 75% 29.95 in - South 9.2 mph - -  
11:00 PM 40.3 °F 34.4 °F 34.9 °F 81% 29.95 in - SSE 9.2 mph - N/A   Unknown
12:00 AM 38.7 °F 36.3 °F 34.2 °F 84% 29.95 in - South 3.5 mph - N/A   Unknown